• In Deutschland
  • Länderverzeichnis
  • Für 7 Tage
  • Wassertemperatur
  • Satellitenkarten
  • Wetterkarte
  • Widgets
  • user-avatar
    Anmelden

    Stündliche Wetter Groß-Umstadt

    Heute, 20 Juli, Freitag

    Zeit Temperatur Niederschläge Wind Luftdruck Luftfeuchtigkeit
    00:00 +20°C° 0 mm 1 m/S 746 mmHg 62%
    01:00 +20°C° 0 mm 1 m/S 746 mmHg 64%
    02:00 +19°C° 0 mm 1 m/S 746 mmHg 66%
    03:00 +19°C° 0 mm 1 m/S 746 mmHg 68%
    04:00 +18°C° 0 mm 1 m/S 746 mmHg 70%
    05:00 +19°C° 0 mm 1 m/S 746 mmHg 68%
    06:00 +20°C° 0 mm 1 m/S 745 mmHg 66%
    07:00 +21°C° 0 mm 1 m/S 745 mmHg 65%
    08:00 +23°C° 0 mm 1 m/S 745 mmHg 59%
    09:00 +25°C° 0 mm 1 m/S 745 mmHg 54%
    10:00 +27°C° 0 mm 1 m/S 745 mmHg 48%
    11:00 +28°C° 0 mm 1 m/S 745 mmHg 44%
    12:00 +30°C° 0 mm 1 m/S 745 mmHg 40%
    13:00 +31°C° 0 mm 1 m/S 745 mmHg 36%
    14:00 +31°C° 0 mm 1 m/S 744 mmHg 35%
    15:00 +30°C° 0 mm 0 m/S 744 mmHg 34%
    16:00 +30°C° 0 mm 0 m/S 744 mmHg 33%
    17:00 +29°C° 0 mm 0 m/S 743 mmHg 38%
    18:00 +28°C° 0 mm 0 m/S 743 mmHg 42%
    19:00 +28°C° 0 mm 1 m/S 743 mmHg 47%
    20:00 +27°C° 0,2 mm 1 m/S 743 mmHg 51%
    21:00 +25°C° 0,2 mm 1 m/S 743 mmHg 55%
    22:00 +24°C° 0,2 mm 1 m/S 743 mmHg 59%
    23:00 +23°C° 0,3 mm 1 m/S 743 mmHg 62%

    Morgen, 21 Juli, Samstag

    Zeit Temperatur Niederschläge Wind Luftdruck Luftfeuchtigkeit
    00:00 +22°C° 0,3 mm 1 m/S 743 mmHg 65%
    01:00 +22°C° 0,3 mm 1 m/S 743 mmHg 68%
    02:00 +22°C° 0,3 mm 1 m/S 743 mmHg 70%
    03:00 +21°C° 0,3 mm 1 m/S 742 mmHg 73%
    04:00 +21°C° 0,3 mm 1 m/S 742 mmHg 75%
    05:00 +21°C° 0,2 mm 1 m/S 742 mmHg 75%
    06:00 +22°C° 0,2 mm 1 m/S 743 mmHg 74%
    07:00 +22°C° 0,2 mm 1 m/S 743 mmHg 74%
    08:00 +24°C° 0,2 mm 1 m/S 743 mmHg 68%
    09:00 +26°C° 0,2 mm 1 m/S 743 mmHg 62%
    10:00 +28°C° 0,2 mm 1 m/S 743 mmHg 57%
    11:00 +28°C° 0,5 mm 1 m/S 743 mmHg 54%
    12:00 +29°C° 0,5 mm 1 m/S 743 mmHg 51%
    13:00 +30°C° 0,5 mm 1 m/S 743 mmHg 49%
    14:00 +30°C° 0,4 mm 1 m/S 743 mmHg 49%
    15:00 +30°C° 0,4 mm 1 m/S 743 mmHg 50%
    16:00 +29°C° 0,4 mm 1 m/S 743 mmHg 50%
    17:00 +28°C° 0,3 mm 1 m/S 743 mmHg 56%
    18:00 +27°C° 0,3 mm 2 m/S 743 mmHg 62%
    19:00 +26°C° 0,3 mm 2 m/S 743 mmHg 67%
    20:00 +25°C° 0,5 mm 2 m/S 743 mmHg 71%
    21:00 +23°C° 0,5 mm 2 m/S 743 mmHg 76%
    22:00 +21°C° 0,5 mm 2 m/S 743 mmHg 80%
    23:00 +22°C° 0,3 mm 1 m/S 743 mmHg 82%

    übermorgen, 22 Juli, Sonntag

    Zeit Temperatur Niederschläge Wind Luftdruck Luftfeuchtigkeit
    00:00 +21°C° 0,3 mm 1 m/S 743 mmHg 83%
    01:00 +21°C° 0,3 mm 1 m/S 743 mmHg 85%
    02:00 +20°C° 0,1 mm 1 m/S 743 mmHg 86%
    03:00 +20°C° 0,1 mm 1 m/S 743 mmHg 87%
    04:00 +20°C° 0,1 mm 1 m/S 743 mmHg 88%
    05:00 +21°C° 0,2 mm 1 m/S 743 mmHg 86%
    06:00 +21°C° 0,2 mm 1 m/S 743 mmHg 84%
    07:00 +22°C° 0,2 mm 1 m/S 743 mmHg 82%
    08:00 +24°C° 0,4 mm 1 m/S 743 mmHg 76%
    09:00 +25°C° 0,4 mm 1 m/S 744 mmHg 71%
    10:00 +27°C° 0,4 mm 1 m/S 744 mmHg 65%
    11:00 +27°C° 0,6 mm 1 m/S 743 mmHg 62%
    12:00 +28°C° 0,6 mm 2 m/S 743 mmHg 59%
    13:00 +29°C° 0,6 mm 2 m/S 743 mmHg 56%
    14:00 +29°C° 0,5 mm 2 m/S 743 mmHg 56%
    15:00 +29°C° 0,5 mm 2 m/S 743 mmHg 56%
    16:00 +29°C° 0,5 mm 2 m/S 743 mmHg 56%
    17:00 +28°C° 0,3 mm 2 m/S 743 mmHg 59%
    18:00 +27°C° 0,3 mm 2 m/S 743 mmHg 63%
    19:00 +27°C° 0,3 mm 2 m/S 743 mmHg 66%
    20:00 +25°C° 0,1 mm 2 m/S 744 mmHg 69%
    21:00 +24°C° 0,1 mm 1 m/S 744 mmHg 72%
    22:00 +23°C° 0,1 mm 1 m/S 744 mmHg 75%
    23:00 +22°C° 0 mm 1 m/S 744 mmHg 77%

    23 Juli, Montag

    Zeit Temperatur Niederschläge Wind Luftdruck Luftfeuchtigkeit
    00:00 +21°C° 0 mm 1 m/S 745 mmHg 78%
    01:00 +21°C° 0 mm 1 m/S 745 mmHg 80%
    02:00 +20°C° 0 mm 1 m/S 745 mmHg 81%
    03:00 +20°C° 0 mm 1 m/S 745 mmHg 82%
    04:00 +19°C° 0 mm 1 m/S 745 mmHg 84%
    05:00 +20°C° 0 mm 1 m/S 745 mmHg 81%
    06:00 +21°C° 0 mm 1 m/S 745 mmHg 79%
    07:00 +22°C° 0 mm 1 m/S 746 mmHg 76%
    08:00 +23°C° 0 mm 1 m/S 746 mmHg 69%
    09:00 +25°C° 0 mm 2 m/S 746 mmHg 61%
    10:00 +27°C° 0 mm 2 m/S 746 mmHg 54%
    11:00 +28°C° 0,2 mm 2 m/S 746 mmHg 51%
    12:00 +29°C° 0,2 mm 2 m/S 746 mmHg 48%
    13:00 +30°C° 0,2 mm 2 m/S 745 mmHg 45%
    14:00 +30°C° 0,1 mm 2 m/S 745 mmHg 45%
    15:00 +30°C° 0,1 mm 2 m/S 745 mmHg 44%
    16:00 +30°C° 0,1 mm 1 m/S 745 mmHg 43%
    17:00 +29°C° 0 mm 1 m/S 745 mmHg 47%
    18:00 +28°C° 0 mm 1 m/S 745 mmHg 50%
    19:00 +27°C° 0 mm 1 m/S 745 mmHg 54%
    20:00 +26°C° 0 mm 1 m/S 745 mmHg 57%
    21:00 +25°C° 0 mm 1 m/S 745 mmHg 60%
    22:00 +23°C° 0 mm 1 m/S 745 mmHg 63%
    23:00 +22°C° 0 mm 1 m/S 745 mmHg 66%

    24 Juli, Dienstag

    Zeit Temperatur Niederschläge Wind Luftdruck Luftfeuchtigkeit
    00:00 +22°C° 0 mm 1 m/S 745 mmHg 69%
    01:00 +21°C° 0 mm 1 m/S 745 mmHg 72%
    02:00 +21°C° 0 mm 1 m/S 745 mmHg 74%
    03:00 +20°C° 0 mm 1 m/S 745 mmHg 76%
    04:00 +20°C° 0 mm 1 m/S 745 mmHg 78%
    05:00 +21°C° 0 mm 1 m/S 745 mmHg 75%
    06:00 +22°C° 0 mm 1 m/S 745 mmHg 73%
    07:00 +23°C° 0 mm 1 m/S 745 mmHg 70%
    08:00 +25°C° 0 mm 1 m/S 745 mmHg 64%
    09:00 +27°C° 0 mm 1 m/S 744 mmHg 59%
    10:00 +28°C° 0 mm 1 m/S 744 mmHg 53%
    11:00 +30°C° 0 mm 1 m/S 744 mmHg 48%
    12:00 +31°C° 0 mm 1 m/S 744 mmHg 44%
    13:00 +32°C° 0 mm 1 m/S 744 mmHg 40%
    14:00 +32°C° 0 mm 1 m/S 743 mmHg 41%
    15:00 +31°C° 0 mm 1 m/S 743 mmHg 42%
    16:00 +31°C° 0 mm 1 m/S 743 mmHg 43%
    17:00 +30°C° 0 mm 1 m/S 743 mmHg 46%
    18:00 +29°C° 0 mm 1 m/S 743 mmHg 50%
    19:00 +29°C° 0 mm 1 m/S 743 mmHg 53%
    20:00 +27°C° 0 mm 1 m/S 743 mmHg 55%
    21:00 +26°C° 0 mm 1 m/S 743 mmHg 58%
    22:00 +25°C° 0 mm 1 m/S 743 mmHg 60%
    23:00 +24°C° 0 mm 1 m/S 743 mmHg 62%

    25 Juli, Mittwoch

    Zeit Temperatur Niederschläge Wind Luftdruck Luftfeuchtigkeit
    00:00 +23°C° 0 mm 1 m/S 744 mmHg 63%
    01:00 +23°C° 0 mm 1 m/S 744 mmHg 65%
    02:00 +20°C° 0 mm 0 m/S 744 mmHg 67%
    03:00 +20°C° 0 mm 0 m/S 744 mmHg 69%
    04:00 +20°C° 0 mm 0 m/S 744 mmHg 71%
    05:00 +21°C° 0,1 mm 0 m/S 744 mmHg 69%
    06:00 +21°C° 0,1 mm 0 m/S 744 mmHg 68%
    07:00 +22°C° 0,1 mm 0 m/S 744 mmHg 66%
    08:00 +24°C° 0,1 mm 0 m/S 744 mmHg 63%
    09:00 +27°C° 0,1 mm 1 m/S 744 mmHg 59%
    10:00 +28°C° 0,1 mm 1 m/S 744 mmHg 56%
    11:00 +29°C° 0,1 mm 1 m/S 744 mmHg 53%
    12:00 +30°C° 0,1 mm 1 m/S 744 mmHg 49%
    13:00 +31°C° 0,1 mm 1 m/S 744 mmHg 46%
    14:00 +31°C° 0 mm 1 m/S 744 mmHg 45%
    15:00 +31°C° 0 mm 1 m/S 744 mmHg 44%
    16:00 +32°C° 0 mm 1 m/S 744 mmHg 43%
    17:00 +30°C° 0,1 mm 1 m/S 744 mmHg 47%
    18:00 +29°C° 0,1 mm 1 m/S 744 mmHg 52%
    19:00 +28°C° 0,1 mm 1 m/S 744 mmHg 56%
    20:00 +27°C° 0,7 mm 1 m/S 745 mmHg 61%
    21:00 +26°C° 0,7 mm 1 m/S 745 mmHg 66%
    22:00 +24°C° 0,7 mm 1 m/S 745 mmHg 71%
    23:00 +24°C° 0,6 mm 1 m/S 745 mmHg 74%
    Mehr zeigen